Volver al catálogo

DELTA 1 DEB

ActivoSSO
NORAD 21281·DEBRIS·🇺🇸 United States

Lanzado Jun 12, 1975 desde Vandenberg Space Force Base

Loading…

Próximos Pases (próximas 24 horas)

TLE

ActualizadoSource: Space-Track

Época: Sep 14, 2026, 07:16 UTC

1 21281U 75052S   26257.30297800  .00000033  00000-0  15089-3 0  9996
2 21281 100.0007 186.8384 0057780  82.6970  69.3209 13.34342969721611

Sigue DELTA 1 DEB en tiempo real con AllMySat

Download on the App Store